User: anonymous   Login
Location: Unspecified
(0.0000°N, 0.0000°E)
Time: 08:19:58
(UTC+00:00)
Language:

COSMOS 2454 - Orbit

View from above orbital plane
View from above orbital plane
View from above satellite
View from above satellite

Ground track
Ground track

The orbit data is extracted from the following two-line orbital elements,

1 35635U 09039A   24141.80603505  .00000157  00000-0  11467-3 0  9997
2 35635  82.9574 241.4619 0017810 265.7230 207.6296 13.89801710752383
Epoch (UTC): 20 May 2024 19:20:41
Eccentricity: 0.0017810
inclination: 82.9574°
perigee height: 916 km
apogee height: 942 km
right ascension of ascending node: 241.4619°
argument of perigee: 265.7230°
revolutions per day: 13.89801710
mean anomaly at epoch: 207.6296°
orbit number at epoch: 75238

The dashed part of the orbit path shows where the satellite is in the earth's shadow,  

DLR